Notices

What's New in latest Release from April 7th, 2021:

- Updated Glossary, including Speed of Maximum Gust, and Total Hourly Precipitation

- Updated national and regional climate services offices contacts and prices information

- Addition of station inventory lists for 1981-2010, 1971-2000, and 1961-1990 Normals.

If you haven't already, please take our survey and provide feedback about our website: https://eccc.sondage-survey.ca/f/LanguageSelection.aspx?s=442ca660-fcf1-47c0-95a9-59707d6fd709

Hourly Data Report for July 04, 2018

OTTAWA INTL A
ONTARIO
Current Station Operator: NAVCAN

45°19'00.000" N
75°40'00.000" W
114.90 m
6106001
71628
YOW

Download Data

Hourly Data (July 2018)
Hourly Data Report for July 4, 2018
TIME
LST
Temp Definition
°C
Dew Point Definition
°C
Rel Hum Definition
%
Precip. Amount Definition
mm

Wind Dir Definition
10's deg

Wind Spd Definition
km/h
Visibility Definition
km
Stn Press Definition
kPa
Hmdx Definition


Wind Chill Definition


Weather Definition


00:00 21.1 15.6 70   19 5 24.1 101.07 25   LegendNANA
01:00 22.0 14.6 63   32 6 24.1 101.07 26   Clear
02:00 20.1 15.2 73   36 3 24.1 101.07     LegendNANA
03:00 19.8 15.7 77   25 4 24.1 101.08     LegendNANA
04:00 16.6 15.2 91   18 7 24.1 101.12     Mainly Clear
05:00 17.9 15.9 88   21 6 24.1 101.18     LegendNANA
06:00 21.7 16.9 74   22 4 24.1 101.22 27   LegendNANA
07:00 24.5 17.1 63   26 8 24.1 101.27 30   Mainly Clear
08:00 27.2 18.0 57   22 5 24.1 101.27 33   LegendNANA
09:00 29.9 16.6 44   26 6 24.1 101.28 35   LegendNANA
10:00 31.5 15.5 37   9 5 24.1 101.26 36   Clear
11:00 33.7 14.2 30   20 12 24.1 101.22 37   LegendNANA
12:00 33.5 14.4 31   19 17 24.1 101.19 37   LegendNANA
13:00 34.2 16.2 33   17 9 24.1 101.11 39   Mainly Clear
14:00 33.8 14.7 31   23 5 24.1 101.07 38   LegendNANA
15:00 34.2 14.0 29   12 12 24.1 101.02 38   LegendNANA
16:00 34.2 14.1 29   17 14 24.1 100.95 38   Mainly Clear
17:00 33.5 16.5 36   14 8 24.1 100.96 38   LegendNANA
18:00 33.1 16.9 37   15 9 24.1 100.97 38   LegendNANA
19:00 30.2 19.4 52   15 5 24.1 100.96 37   Clear
20:00 28.5 18.0 52   17 7 24.1 100.95 35   LegendNANA
21:00 25.1 18.0 64   15 8 24.1 100.99 31   LegendNANA
22:00 25.5 18.4 64   17 9 24.1 101.00 32   Mainly Clear
23:00 25.0 18.6 67   17 7 24.1 100.98 31   LegendNANA

Notes on Data Quality.

Legend

  • E = Estimated
  • M = Missing
  • NA = Not Available*
  • [empty] = Indicates an unobserved value
Date modified: